Time,TemperatureF,DewpointF,PressureIn,WindDirection,WindDirectionDegrees,WindSpeedMPH,WindSpeedGustMPH,Humidity,HourlyPrecipIn,Conditions,Clouds,dailyrainin,SolarRadiationWatts/m^2,SoftwareType,DateUTC
2013-05-18 00:01:00,53.0,43.0,-100.00,WNW,297,9.0,13.0,70,0.00,,,0.04,0.000000,,2013-05-18 07:01:00,
2013-05-18 00:11:00,53.0,43.0,-100.00,WNW,297,9.0,13.0,70,0.00,,,0.04,0.000000,,2013-05-18 07:11:00,
2013-05-18 00:21:00,53.0,43.0,-100.00,WNW,297,9.0,13.0,70,0.00,,,0.04,0.000000,,2013-05-18 07:21:00,
2013-05-18 00:52:00,55.0,43.0,-100.00,WNW,283,9.0,15.0,64,0.00,,,0.04,0.000000,,2013-05-18 07:52:00,
2013-05-18 01:01:00,55.0,43.0,-100.00,WNW,283,9.0,15.0,64,0.00,,,0.04,0.000000,,2013-05-18 08:01:00,
2013-05-18 01:11:00,55.0,43.0,-100.00,WNW,283,9.0,15.0,64,0.00,,,0.04,0.000000,,2013-05-18 08:11:00,
2013-05-18 01:21:00,55.0,43.0,-100.00,WNW,283,9.0,15.0,64,0.00,,,0.04,0.000000,,2013-05-18 08:21:00,
2013-05-18 01:52:00,54.0,44.0,-100.00,WNW,290,9.0,14.0,69,0.00,,,-99.99,0.000000,,2013-05-18 08:52:00,
2013-05-18 02:02:00,54.0,44.0,-100.00,WNW,290,9.0,14.0,69,0.00,,,-99.99,0.000000,,2013-05-18 09:02:00,
2013-05-18 02:11:00,54.0,44.0,-100.00,WNW,290,9.0,14.0,69,0.00,,,-99.99,0.000000,,2013-05-18 09:11:00,
2013-05-18 02:22:00,54.0,44.0,-100.00,WNW,290,9.0,14.0,69,0.00,,,-99.99,0.000000,,2013-05-18 09:22:00,
2013-05-18 02:53:00,53.0,43.0,-100.00,WNW,294,9.0,15.0,68,0.00,,,0.04,0.000000,,2013-05-18 09:53:00,
2013-05-18 03:02:00,53.0,43.0,-100.00,WNW,294,9.0,15.0,68,0.00,,,0.04,0.000000,,2013-05-18 10:02:00,
2013-05-18 03:12:00,53.0,43.0,-100.00,WNW,294,9.0,15.0,68,0.00,,,0.04,0.000000,,2013-05-18 10:12:00,
2013-05-18 03:22:00,53.0,43.0,-100.00,WNW,294,9.0,15.0,68,0.00,,,0.04,0.000000,,2013-05-18 10:22:00,
2013-05-18 03:52:00,51.0,42.0,-100.00,WSW,257,6.0,13.0,71,0.00,,,0.04,0.000000,,2013-05-18 10:52:00,
2013-05-18 04:02:00,51.0,42.0,-100.00,WSW,257,6.0,13.0,71,0.00,,,0.04,0.000000,,2013-05-18 11:02:00,
2013-05-18 04:12:00,51.0,42.0,-100.00,WSW,257,6.0,13.0,71,0.00,,,0.04,0.000000,,2013-05-18 11:12:00,
2013-05-18 04:22:00,51.0,42.0,-100.00,WSW,257,6.0,13.0,71,0.00,,,0.04,0.000000,,2013-05-18 11:22:00,
2013-05-18 04:52:00,49.0,41.0,-100.00,West,278,7.0,10.0,75,0.00,,,0.04,0.000000,,2013-05-18 11:52:00,
2013-05-18 05:01:00,49.0,41.0,-100.00,West,278,7.0,10.0,75,0.00,,,0.04,0.000000,,2013-05-18 12:01:00,
2013-05-18 05:12:00,49.0,41.0,-100.00,West,278,7.0,10.0,75,0.00,,,0.04,0.000000,,2013-05-18 12:12:00,
2013-05-18 05:23:00,49.0,41.0,-100.00,West,278,7.0,10.0,75,0.00,,,0.04,0.000000,,2013-05-18 12:23:00,
2013-05-18 05:52:00,45.0,41.0,-100.00,NE,41,0.0,8.0,86,0.00,,,0.04,2.000000,,2013-05-18 12:52:00,
2013-05-18 06:01:00,45.0,41.0,-100.00,NE,41,0.0,8.0,86,0.00,,,0.04,2.000000,,2013-05-18 13:01:00,
2013-05-18 06:11:00,45.0,41.0,-100.00,NE,41,0.0,8.0,86,0.00,,,0.04,2.000000,,2013-05-18 13:11:00,
2013-05-18 06:21:00,45.0,41.0,-100.00,NE,41,0.0,8.0,86,0.00,,,0.04,2.000000,,2013-05-18 13:21:00,
2013-05-18 06:52:00,49.0,43.0,-100.00,ENE,59,2.0,5.0,79,0.00,,,0.04,85.000000,,2013-05-18 13:52:00,
2013-05-18 07:03:00,49.0,43.0,-100.00,ENE,59,2.0,5.0,79,0.00,,,0.04,85.000000,,2013-05-18 14:03:00,
2013-05-18 07:12:00,49.0,43.0,-100.00,ENE,59,2.0,5.0,79,0.00,,,0.04,85.000000,,2013-05-18 14:12:00,
2013-05-18 07:22:00,49.0,43.0,-100.00,ENE,59,2.0,5.0,79,0.00,,,0.04,85.000000,,2013-05-18 14:22:00,
2013-05-18 07:54:00,53.0,44.0,-100.00,SSE,159,3.0,4.0,71,0.00,,,0.04,234.000000,,2013-05-18 14:54:00,
2013-05-18 08:03:00,53.0,44.0,-100.00,SSE,159,3.0,4.0,71,0.00,,,0.04,234.000000,,2013-05-18 15:03:00,
2013-05-18 08:13:00,53.0,44.0,-100.00,SSE,159,3.0,4.0,71,0.00,,,0.04,234.000000,,2013-05-18 15:13:00,
2013-05-18 08:23:00,53.0,44.0,-100.00,SSE,159,3.0,4.0,71,0.00,,,0.04,234.000000,,2013-05-18 15:23:00,
2013-05-18 08:53:00,59.0,43.0,-100.00,SSW,198,6.0,11.0,56,0.00,,,0.04,462.000000,,2013-05-18 15:53:00,
2013-05-18 09:02:00,59.0,43.0,-100.00,SSW,198,6.0,11.0,56,0.00,,,0.04,462.000000,,2013-05-18 16:02:00,
2013-05-18 09:12:00,59.0,43.0,-100.00,SSW,198,6.0,11.0,56,0.00,,,0.04,462.000000,,2013-05-18 16:12:00,
2013-05-18 09:22:00,59.0,43.0,-100.00,SSW,198,6.0,11.0,56,0.00,,,0.04,462.000000,,2013-05-18 16:22:00,
2013-05-18 09:52:00,61.0,42.0,-100.00,South,175,5.0,11.0,50,0.00,,,0.04,656.000000,,2013-05-18 16:52:00,
2013-05-18 10:02:00,61.0,42.0,-100.00,South,175,5.0,11.0,50,0.00,,,0.04,656.000000,,2013-05-18 17:02:00,
2013-05-18 10:12:00,61.0,42.0,-100.00,South,175,5.0,11.0,50,0.00,,,0.04,656.000000,,2013-05-18 17:12:00,
2013-05-18 10:22:00,61.0,42.0,-100.00,South,175,5.0,11.0,50,0.00,,,0.04,656.000000,,2013-05-18 17:22:00,
2013-05-18 10:52:00,66.0,42.0,-100.00,SW,224,8.0,14.0,42,0.00,,,0.04,818.000000,,2013-05-18 17:52:00,
2013-05-18 11:01:00,66.0,42.0,-100.00,SW,224,8.0,14.0,42,0.00,,,0.04,818.000000,,2013-05-18 18:01:00,
2013-05-18 11:12:00,66.0,42.0,-100.00,SW,224,8.0,14.0,42,0.00,,,0.04,818.000000,,2013-05-18 18:12:00,
2013-05-18 11:21:00,66.0,42.0,-100.00,SW,224,8.0,14.0,42,0.00,,,0.04,818.000000,,2013-05-18 18:21:00,
2013-05-18 11:52:00,68.0,39.0,-100.00,SSW,196,10.0,18.0,35,0.00,,,0.04,908.000000,,2013-05-18 18:52:00,
2013-05-18 12:02:00,68.0,39.0,-100.00,SSW,196,10.0,18.0,35,0.00,,,0.04,908.000000,,2013-05-18 19:02:00,
2013-05-18 12:11:00,68.0,39.0,-100.00,SSW,196,10.0,18.0,35,0.00,,,0.04,908.000000,,2013-05-18 19:11:00,
2013-05-18 12:22:00,68.0,39.0,-100.00,SSW,196,10.0,18.0,35,0.00,,,0.04,908.000000,,2013-05-18 19:22:00,
2013-05-18 12:52:00,67.0,38.0,-100.00,SSW,201,8.0,17.0,35,0.00,,,0.04,842.000000,,2013-05-18 19:52:00,
2013-05-18 13:01:00,67.0,38.0,-100.00,SSW,201,8.0,17.0,35,0.00,,,0.04,842.000000,,2013-05-18 20:01:00,
2013-05-18 13:11:00,67.0,38.0,-100.00,SSW,201,8.0,17.0,35,0.00,,,0.04,842.000000,,2013-05-18 20:11:00,
2013-05-18 13:22:00,67.0,38.0,-100.00,SSW,201,8.0,17.0,35,0.00,,,0.04,842.000000,,2013-05-18 20:22:00,
2013-05-18 13:52:00,66.0,39.0,-100.00,SSE,166,7.0,16.0,37,0.00,,,0.04,356.000000,,2013-05-18 20:52:00,
2013-05-18 14:01:00,66.0,39.0,-100.00,SSE,166,7.0,16.0,37,0.00,,,0.04,356.000000,,2013-05-18 21:01:00,
2013-05-18 14:11:00,66.0,39.0,-100.00,SSE,166,7.0,16.0,37,0.00,,,0.04,356.000000,,2013-05-18 21:11:00,
2013-05-18 14:21:00,66.0,39.0,-100.00,SSE,166,7.0,16.0,37,0.00,,,0.04,356.000000,,2013-05-18 21:21:00,
2013-05-18 14:53:00,68.0,37.0,-100.00,South,183,5.0,11.0,32,0.00,,,0.04,407.000000,,2013-05-18 21:53:00,
2013-05-18 15:03:00,68.0,37.0,-100.00,South,183,5.0,11.0,32,0.00,,,0.04,407.000000,,2013-05-18 22:03:00,
2013-05-18 15:12:00,68.0,37.0,-100.00,South,183,5.0,11.0,32,0.00,,,0.04,407.000000,,2013-05-18 22:12:00,
2013-05-18 15:23:00,68.0,37.0,-100.00,South,183,5.0,11.0,32,0.00,,,0.04,407.000000,,2013-05-18 22:23:00,
2013-05-18 15:52:00,66.0,38.0,-100.00,WSW,240,11.0,17.0,35,0.00,,,0.04,258.000000,,2013-05-18 22:52:00,
2013-05-18 16:01:00,66.0,38.0,-100.00,WSW,240,11.0,17.0,35,0.00,,,0.04,258.000000,,2013-05-18 23:01:00,
2013-05-18 16:11:00,66.0,38.0,-100.00,WSW,240,11.0,17.0,35,0.00,,,0.04,258.000000,,2013-05-18 23:11:00,
2013-05-18 16:21:00,66.0,38.0,-100.00,WSW,240,11.0,17.0,35,0.00,,,0.04,258.000000,,2013-05-18 23:21:00,
2013-05-18 16:53:00,65.0,40.0,-100.00,SW,234,9.0,20.0,40,0.00,,,0.04,193.000000,,2013-05-18 23:53:00,
2013-05-18 17:01:00,65.0,40.0,-100.00,SW,234,9.0,20.0,40,0.00,,,0.04,193.000000,,2013-05-19 00:01:00,
2013-05-18 17:11:00,65.0,40.0,-100.00,SW,234,9.0,20.0,40,0.00,,,0.04,193.000000,,2013-05-19 00:11:00,
2013-05-18 17:21:00,65.0,40.0,-100.00,SW,234,9.0,20.0,40,0.00,,,0.04,193.000000,,2013-05-19 00:21:00,
2013-05-18 17:52:00,70.0,39.0,-100.00,SSE,149,4.0,10.0,32,0.00,,,0.04,393.000000,,2013-05-19 00:52:00,
2013-05-18 18:01:00,70.0,39.0,-100.00,SSE,149,4.0,10.0,32,0.00,,,0.04,393.000000,,2013-05-19 01:01:00,
2013-05-18 18:11:00,70.0,39.0,-100.00,SSE,149,4.0,10.0,32,0.00,,,0.04,393.000000,,2013-05-19 01:11:00,
2013-05-18 18:21:00,70.0,39.0,-100.00,SSE,149,4.0,10.0,32,0.00,,,0.04,393.000000,,2013-05-19 01:21:00,
2013-05-18 18:52:00,65.0,37.0,-100.00,West,265,11.0,20.0,35,0.00,,,0.01,386.000000,,2013-05-19 01:52:00,
2013-05-18 19:01:00,65.0,37.0,-100.00,West,265,11.0,20.0,35,0.00,,,0.01,386.000000,,2013-05-19 02:01:00,
2013-05-18 19:11:00,65.0,37.0,-100.00,West,265,11.0,20.0,35,0.00,,,0.01,386.000000,,2013-05-19 02:11:00,
2013-05-18 19:21:00,65.0,37.0,-100.00,West,265,11.0,20.0,35,0.00,,,0.01,386.000000,,2013-05-19 02:21:00,
2013-05-18 19:52:00,63.0,40.0,-100.00,West,269,9.0,13.0,43,0.00,,,0.00,107.000000,,2013-05-19 02:52:00,
2013-05-18 20:01:00,63.0,40.0,-100.00,West,269,9.0,13.0,43,0.00,,,0.00,107.000000,,2013-05-19 03:01:00,
2013-05-18 20:11:00,63.0,40.0,-100.00,West,269,9.0,13.0,43,0.00,,,0.00,107.000000,,2013-05-19 03:11:00,
2013-05-18 20:21:00,63.0,40.0,-100.00,West,269,9.0,13.0,43,0.00,,,0.00,107.000000,,2013-05-19 03:21:00,
2013-05-18 20:53:00,58.0,39.0,-100.00,West,267,12.0,17.0,50,0.00,,,0.00,34.000000,,2013-05-19 03:53:00,
2013-05-18 21:02:00,58.0,39.0,-100.00,West,267,12.0,17.0,50,0.00,,,0.00,34.000000,,2013-05-19 04:02:00,
2013-05-18 21:12:00,58.0,39.0,-100.00,West,267,12.0,17.0,50,0.00,,,0.00,34.000000,,2013-05-19 04:12:00,
2013-05-18 21:23:00,58.0,39.0,-100.00,West,267,12.0,17.0,50,0.00,,,0.00,34.000000,,2013-05-19 04:23:00,
2013-05-18 21:53:00,56.0,41.0,-100.00,WNW,287,11.0,17.0,56,0.00,,,0.00,1.000000,,2013-05-19 04:53:00,
2013-05-18 22:02:00,56.0,41.0,-100.00,WNW,287,11.0,17.0,56,0.00,,,0.00,1.000000,,2013-05-19 05:02:00,
2013-05-18 22:12:00,56.0,41.0,-100.00,WNW,287,11.0,17.0,56,0.00,,,0.00,1.000000,,2013-05-19 05:12:00,
2013-05-18 22:21:00,56.0,41.0,-100.00,WNW,287,11.0,17.0,56,0.00,,,0.00,1.000000,,2013-05-19 05:21:00,
2013-05-18 22:52:00,54.0,41.0,-100.00,West,279,9.0,15.0,61,0.00,,,0.00,0.000000,,2013-05-19 05:52:00,
2013-05-18 23:02:00,54.0,41.0,-100.00,West,279,9.0,15.0,61,0.00,,,0.00,0.000000,,2013-05-19 06:02:00,
2013-05-18 23:12:00,54.0,41.0,-100.00,West,279,9.0,15.0,61,0.00,,,0.00,0.000000,,2013-05-19 06:12:00,
2013-05-18 23:21:00,54.0,41.0,-100.00,West,279,9.0,15.0,61,0.00,,,0.00,0.000000,,2013-05-19 06:21:00,
2013-05-18 23:52:00,54.0,41.0,-100.00,West,280,13.0,18.0,62,0.00,,,0.00,0.000000,,2013-05-19 06:52:00,